This is the latest recevied weather packets stored in our database for station/object BG5HLN-13. If no packets are shown the sender has not sent any weather packets the latest 10 day(s).
| Time | Temp. | Humidity | Pressure | Rain* | Wind** | Luminosity | Snow |
|---|---|---|---|---|---|---|---|
| 1777699759 | 26.11° C | 64% | 1005.8 hPa | 0 mm | - | - | - |
| 1777699159 | 26.11° C | 62% | 1006.1 hPa | 0 mm | - | - | - |
| 1777698559 | 26.11° C | 63% | 1006.3 hPa | 0 mm | - | - | - |
| 1777697960 | 26.11° C | 61% | 1006.4 hPa | 0 mm | - | - | - |
| 1777697359 | 26.11° C | 62% | 1006.5 hPa | 0 mm | - | - | - |
| 1777696759 | 26.67° C | 60% | 1006.5 hPa | 0 mm | - | - | - |
| 1777696159 | 26.67° C | 61% | 1006.8 hPa | 0 mm | - | - | - |
| 1777695559 | 26.67° C | 59% | 1007 hPa | 0 mm | - | - | - |
| 1777694960 | 27.22° C | 59% | 1007.2 hPa | 0 mm | - | - | - |
| 1777694359 | 26.67° C | 60% | 1007.2 hPa | 0 mm | - | - | - |
| 1777693759 | 26.67° C | 58% | 1007.1 hPa | 0 mm | - | - | - |
| 1777693163 | 26.67° C | 59% | 1007.2 hPa | 0 mm | - | - | - |
| 1777693158 | 26.67° C | 58% | 1007.1 hPa | 0 mm | - | - | - |
| 1777692559 | 26.67° C | 60% | 1007.5 hPa | 0 mm | - | - | - |
| 1777691958 | 26.11° C | 58% | 1007.6 hPa | 0 mm | - | - | - |
| 1777691361 | 26.11° C | 59% | 1007.6 hPa | 0 mm | - | - | - |
| 1777691358 | 26.11° C | 59% | 1007.6 hPa | 0 mm | - | - | - |
| 1777690758 | 25.56° C | 58% | 1007.8 hPa | 0 mm | - | - | - |
| 1777690159 | 25.56° C | 59% | 1008.1 hPa | 0 mm | - | - | - |
| 1777689561 | 25° C | 59% | 1008.2 hPa | 0 mm | - | - | - |
| 1777689558 | 25° C | 59% | 1008.1 hPa | 0 mm | - | - | - |
| 1777688958 | 24.44° C | 60% | 1008.2 hPa | 0 mm | - | - | - |
| 1777688359 | 23.89° C | 61% | 1008.4 hPa | 0 mm | - | - | - |
| 1777687760 | 23.89° C | 61% | 1008.5 hPa | 0 mm | - | - | - |
| 1777687758 | 23.89° C | 61% | 1008.5 hPa | 0 mm | - | - | - |
* Rain latest hour (hover to see other rain measurements)
** Current wind speed in m/s (hover to see current wind gust speed)